Weather History for Alamosa, CO

Change the Weather History Date:

Wednesday, December 26, 2012

  Actual Average Record
Temperature  
Mean Temperature 5 °F 16 °F  
Max Temperature 22 °F 34 °F 58 °F (2005)
Min Temperature -12 °F -2 °F -28 °F (1932)
Degree Days  
Heating Degree Days 60 49  
Month to date heating degree days 1336 1217  
Since 1 July heating degree days 3384 3392  
Cooling Degree Days 0 0  
Month to date cooling degree days 0 0  
Year to date cooling degree days 115 51  
Moisture  
Dew Point -2 °F    
Average Humidity 77    
Maximum Humidity 96    
Minimum Humidity 57    
Precipitation  
Precipitation 0.00 in 0.01 in 0.44 in (1974)
Month to date precipitation 0.61 0.30  
Year to date precipitation 5.38 7.26  
Snow  
Snow 0.00 in 0.20 in 5.60 in (1974)
Month to date snowfall 8.9 3.9  
Since 1 July snowfall 8.9 9.7  
Snow Depth 2.00 in    
Sea Level Pressure  
Sea Level Pressure 30.05 in    
Wind  
Wind Speed 4 mph (WNW)    
Max Wind Speed 15 mph    
Max Gust Speed 20 mph    
Visibility 9 miles    
Events      
T = Trace of Precipitation, MM = Missing Value Source: NWS Daily Summary

Daily Weather History Graph

Daily Weather History Graph

Search for Another Location

Airport:

Trip Planner

Search our weather history database for the weather conditions in past years. The results will help you decide how hot, cold, wet, or windy it might be!

Date:

Astronomy

Dec. 26, 2012 Rise Set
Actual Time 7:16 AM MST 4:52 PM MST
Civil Twilight 6:47 AM MST 5:21 PM MST
Nautical Twilight 6:14 AM MST 5:54 PM MST
Astronomical Twilight 5:42 AM MST 6:26 PM MST
Moon 3:47 PM MST (12/26) 5:42 AM MST (12/26)
Length of Visible Light 10h 34m
Length of Day
9h 35m
Waxing Gibbous, 98% of the Moon is Illuminated
Dec 26
Waxing Gibbous
Dec 28
Full
Jan 4
Last Quarter
Jan 11
New
Jan 18
First Quarter

Hourly Weather History & Observations

Time (MST) Temp. Windchill Dew Point Humidity Pressure Visibility Wind Dir Wind Speed Gust Speed Precip Events Conditions
12:43 AM -9.4 °F -18.6 °F -16.6 °F 71% 30.01 in 10.0 mi SE 3.5 mph - N/A   Scattered Clouds
12:52 AM -11.0 °F -26.2 °F -14.1 °F 86% 30.29 in 10.0 mi SSE 6.9 mph - N/A   Mostly Cloudy
1:06 AM -11.2 °F -24.8 °F -16.6 °F 77% 30.01 in 10.0 mi South 5.8 mph - N/A   Scattered Clouds
1:52 AM -9.0 °F - -14.1 °F 79% 30.25 in 10.0 mi Calm Calm - N/A   Clear
2:52 AM -4.0 °F - -8.0 °F 83% 30.20 in 10.0 mi Calm Calm - N/A   Clear
3:52 AM -4.0 °F -12.4 °F -8.0 °F 83% 30.18 in 10.0 mi ESE 3.5 mph - N/A   Clear
4:52 AM -4.0 °F - -8.0 °F 83% 30.23 in 10.0 mi Calm Calm - N/A   Mostly Cloudy
5:02 AM -5.8 °F - -9.4 °F 84% 29.94 in 10.0 mi Calm Calm - N/A   Mostly Cloudy
5:35 AM -2.2 °F - -7.6 °F 78% 29.93 in 10.0 mi Calm Calm - N/A   Overcast
5:52 AM -0.0 °F -7.9 °F -4.0 °F 83% 30.21 in 7.0 mi NNE 3.5 mph - N/A   Mostly Cloudy
6:06 AM -0.4 °F - -4.0 °F 85% 29.93 in 9.0 mi Calm Calm - N/A   Scattered Clouds
6:52 AM -6.0 °F - -9.0 °F 87% 30.30 in 9.0 mi Calm Calm - N/A   Partly Cloudy
7:11 AM -7.6 °F -22.1 °F -11.2 °F 84% 29.94 in 10.0 mi West 6.9 mph - N/A   Mostly Cloudy
7:41 AM -7.6 °F -20.6 °F -9.4 °F 92% 29.93 in 7.0 mi West 5.8 mph - N/A   Mostly Cloudy
7:52 AM -5.1 °F -17.6 °F -8.0 °F 87% 30.29 in 5.0 mi WNW 5.8 mph - N/A   Mostly Cloudy
8:03 AM -5.8 °F -18.4 °F -7.6 °F 92% 29.93 in 2.5 mi NW 5.8 mph - N/A   Mostly Cloudy
8:10 AM -5.8 °F -19.9 °F -7.6 °F 92% 29.93 in 8.0 mi NW 6.9 mph - N/A   Overcast
8:49 AM 1.4 °F - -2.2 °F 85% 29.94 in 10.0 mi Calm Calm - N/A   Scattered Clouds
8:52 AM 3.0 °F - -0.9 °F 84% 30.25 in 10.0 mi Calm Calm - N/A   Partly Cloudy
9:52 AM 8.1 °F 1.4 °F 3.9 °F 83% 30.22 in 10.0 mi ESE 3.5 mph - N/A   Partly Cloudy
10:47 AM 10.4 °F - 5.0 °F 79% 29.91 in 10.0 mi North - - N/A   Partly Cloudy
10:52 AM 10.0 °F - 6.1 °F 84% 30.25 in 10.0 mi Calm Calm - N/A   Partly Cloudy
11:52 AM 17.1 °F 11.7 °F 8.1 °F 68% 30.14 in 10.0 mi WSW 3.5 mph - N/A   Clear
12:52 PM 21.0 °F 16.2 °F 9.0 °F 60% 30.08 in 10.0 mi Variable 3.5 mph - N/A   Clear
1:52 PM 21.2 °F 14.9 °F 8.6 °F 58% 29.77 in 10.0 mi WNW 4.6 mph - N/A   Partly Cloudy
2:52 PM 19.9 °F 14.9 °F 10.9 °F 68% 29.98 in 10.0 mi WSW 3.5 mph - N/A   Clear
3:52 PM 19.9 °F - 10.0 °F 65% 29.96 in 10.0 mi Calm Calm - N/A   Clear
4:52 PM 12.9 °F 2.6 °F 7.0 °F 77% 29.99 in 10.0 mi NNW 6.9 mph - N/A   Clear
5:52 PM 3.9 °F - -0.0 °F 84% 30.01 in 10.0 mi Calm Calm - N/A   Clear
6:52 PM -0.0 °F -11.6 °F -2.9 °F 88% 30.04 in 10.0 mi NE 5.8 mph - N/A   Clear
7:52 PM 6.1 °F -6.8 °F 3.9 °F 91% 29.99 in 10.0 mi NNW 8.1 mph - N/A   Clear
8:52 PM 5.0 °F -5.6 °F 3.0 °F 92% 29.95 in 10.0 mi NE 5.8 mph - N/A   Overcast
9:52 PM 8.1 °F 1.4 °F 5.0 °F 87% 29.89 in 10.0 mi NE 3.5 mph - N/A   Overcast
10:52 PM 10.0 °F -4.5 °F 6.1 °F 84% 29.86 in 10.0 mi SSW 11.5 mph - N/A   Mostly Cloudy
11:52 PM 12.9 °F 0.7 °F 10.0 °F 88% 29.80 in 10.0 mi WSW 9.2 mph - N/A   Clear